![]() |
EMODnet Physics ERDDAP
Easier access to scientific data |
log in|
Brought to you by EMODnet Physics |
| Dataset Title: | NDBC - Collection of dew point temperature (DEWT) TimeSeries - IN SITU MultiPointTimeSeriesObservation
|
| Institution: | NDBC (Dataset ID: TS_DEWT_NDBC) |
| Information: | Summary
| License
| FGDC
| ISO 19115
| Metadata
| Background
| Subset
| Data Access Form
| Make a graph
|
| Name | Last modified | Size | Description | |
|---|---|---|---|---|
| Parent Directory | - | - | ||
| 46071_TS_DEWT_012005.nc | 27-Oct-2024 00:41 | 429468 | ||
| 46071_TS_DEWT_012006.nc | 27-Oct-2024 00:41 | 429821 | ||
| 46071_TS_DEWT_012007.nc | 27-Oct-2024 00:41 | 429442 | ||
| 46071_TS_DEWT_012009.nc | 27-Oct-2024 00:41 | 429712 | ||
| 46071_TS_DEWT_012017.nc | 27-Oct-2024 00:41 | 429719 | ||
| 46071_TS_DEWT_012020.nc | 27-Oct-2024 00:41 | 429836 | ||
| 46071_TS_DEWT_012021.nc | 27-Oct-2024 00:41 | 429837 | ||
| 46071_TS_DEWT_012023.nc | 27-Oct-2024 00:41 | 429842 | ||
| 46071_TS_DEWT_012024.nc | 27-Oct-2024 00:41 | 429820 | ||
| 46071_TS_DEWT_022005.nc | 27-Oct-2024 00:41 | 429810 | ||
| 46071_TS_DEWT_022006.nc | 27-Oct-2024 00:41 | 429768 | ||
| 46071_TS_DEWT_022007.nc | 27-Oct-2024 00:41 | 429839 | ||
| 46071_TS_DEWT_022009.nc | 27-Oct-2024 00:42 | 429757 | ||
| 46071_TS_DEWT_022017.nc | 27-Oct-2024 00:42 | 429787 | ||
| 46071_TS_DEWT_022020.nc | 27-Oct-2024 00:42 | 429050 | ||
| 46071_TS_DEWT_022021.nc | 27-Oct-2024 00:42 | 429843 | ||
| 46071_TS_DEWT_022023.nc | 27-Oct-2024 00:42 | 429834 | ||
| 46071_TS_DEWT_022024.nc | 16-Sep-2024 16:51 | 429841 | ||
| 46071_TS_DEWT_032005.nc | 27-Oct-2024 00:42 | 429527 | ||
| 46071_TS_DEWT_032006.nc | 27-Oct-2024 00:42 | 428043 | ||
| 46071_TS_DEWT_032007.nc | 27-Oct-2024 00:42 | 429180 | ||
| 46071_TS_DEWT_032009.nc | 27-Oct-2024 00:42 | 429448 | ||
| 46071_TS_DEWT_032017.nc | 27-Oct-2024 00:42 | 428978 | ||
| 46071_TS_DEWT_032020.nc | 27-Oct-2024 00:42 | 429419 | ||
| 46071_TS_DEWT_032021.nc | 27-Oct-2024 00:42 | 429454 | ||
| 46071_TS_DEWT_042005.nc | 27-Oct-2024 00:42 | 429491 | ||
| 46071_TS_DEWT_042006.nc | 27-Oct-2024 00:42 | 429232 | ||
| 46071_TS_DEWT_042007.nc | 27-Oct-2024 00:42 | 429367 | ||
| 46071_TS_DEWT_042009.nc | 27-Oct-2024 00:42 | 429247 | ||
| 46071_TS_DEWT_042017.nc | 27-Oct-2024 00:42 | 429477 | ||
| 46071_TS_DEWT_042020.nc | 27-Oct-2024 00:42 | 429495 | ||
| 46071_TS_DEWT_042021.nc | 27-Oct-2024 00:42 | 428992 | ||
| 46071_TS_DEWT_052005.nc | 27-Oct-2024 00:42 | 429427 | ||
| 46071_TS_DEWT_052006.nc | 27-Oct-2024 00:43 | 429378 | ||
| 46071_TS_DEWT_052007.nc | 27-Oct-2024 00:43 | 429147 | ||
| 46071_TS_DEWT_052009.nc | 27-Oct-2024 00:43 | 429496 | ||
| 46071_TS_DEWT_052016.nc | 27-Oct-2024 00:43 | 429495 | ||
| 46071_TS_DEWT_052017.nc | 27-Oct-2024 00:43 | 429843 | ||
| 46071_TS_DEWT_052020.nc | 27-Oct-2024 00:43 | 429820 | ||
| 46071_TS_DEWT_052021.nc | 27-Oct-2024 00:43 | 429670 | ||
| 46071_TS_DEWT_062005.nc | 27-Oct-2024 00:43 | 429843 | ||
| 46071_TS_DEWT_062006.nc | 27-Oct-2024 00:43 | 418799 | ||
| 46071_TS_DEWT_062007.nc | 27-Oct-2024 00:43 | 429833 | ||
| 46071_TS_DEWT_062008.nc | 27-Oct-2024 00:43 | 429845 | ||
| 46071_TS_DEWT_062009.nc | 27-Oct-2024 00:43 | 429837 | ||
| 46071_TS_DEWT_062016.nc | 27-Oct-2024 00:43 | 429788 | ||
| 46071_TS_DEWT_062017.nc | 27-Oct-2024 00:43 | 429840 | ||
| 46071_TS_DEWT_062020.nc | 27-Oct-2024 00:44 | 429840 | ||
| 46071_TS_DEWT_062022.nc | 27-Oct-2024 00:44 | 429835 | ||
| 46071_TS_DEWT_062023.nc | 27-Oct-2024 00:44 | 429643 | ||
| 46071_TS_DEWT_072005.nc | 27-Oct-2024 00:44 | 429763 | ||
| 46071_TS_DEWT_072006.nc | 27-Oct-2024 00:44 | 429836 | ||
| 46071_TS_DEWT_072007.nc | 27-Oct-2024 00:44 | 429842 | ||
| 46071_TS_DEWT_072008.nc | 27-Oct-2024 00:44 | 429797 | ||
| 46071_TS_DEWT_072009.nc | 27-Oct-2024 00:44 | 429794 | ||
| 46071_TS_DEWT_072012.nc | 27-Oct-2024 00:44 | 429807 | ||
| 46071_TS_DEWT_072016.nc | 27-Oct-2024 00:44 | 428996 | ||
| 46071_TS_DEWT_072017.nc | 27-Oct-2024 00:44 | 429840 | ||
| 46071_TS_DEWT_072020.nc | 27-Oct-2024 00:44 | 429837 | ||
| 46071_TS_DEWT_072022.nc | 27-Oct-2024 00:44 | 429840 | ||
| 46071_TS_DEWT_072023.nc | 27-Oct-2024 00:44 | 429839 | ||
| 46071_TS_DEWT_082005.nc | 27-Oct-2024 00:44 | 429670 | ||
| 46071_TS_DEWT_082006.nc | 27-Oct-2024 00:44 | 429842 | ||
| 46071_TS_DEWT_082007.nc | 27-Oct-2024 00:44 | 429837 | ||
| 46071_TS_DEWT_082008.nc | 27-Oct-2024 00:44 | 429840 | ||
| 46071_TS_DEWT_082009.nc | 27-Oct-2024 00:45 | 428795 | ||
| 46071_TS_DEWT_082012.nc | 27-Oct-2024 00:45 | 429819 | ||
| 46071_TS_DEWT_082016.nc | 27-Oct-2024 00:45 | 429841 | ||
| 46071_TS_DEWT_082017.nc | 27-Oct-2024 00:45 | 429560 | ||
| 46071_TS_DEWT_082019.nc | 27-Oct-2024 00:45 | 429840 | ||
| 46071_TS_DEWT_082020.nc | 27-Oct-2024 00:45 | 429843 | ||
| 46071_TS_DEWT_082022.nc | 27-Oct-2024 00:45 | 428863 | ||
| 46071_TS_DEWT_082023.nc | 27-Oct-2024 00:45 | 427631 | ||
| 46071_TS_DEWT_092005.nc | 27-Oct-2024 00:45 | 426015 | ||
| 46071_TS_DEWT_092006.nc | 27-Oct-2024 00:45 | 429100 | ||
| 46071_TS_DEWT_092007.nc | 27-Oct-2024 00:45 | 425841 | ||
| 46071_TS_DEWT_092008.nc | 27-Oct-2024 00:45 | 429501 | ||
| 46071_TS_DEWT_092009.nc | 27-Oct-2024 00:45 | 429496 | ||
| 46071_TS_DEWT_092012.nc | 27-Oct-2024 00:45 | 429499 | ||
| 46071_TS_DEWT_092016.nc | 27-Oct-2024 00:45 | 429481 | ||
| 46071_TS_DEWT_092017.nc | 27-Oct-2024 00:45 | 429498 | ||
| 46071_TS_DEWT_092019.nc | 27-Oct-2024 00:46 | 429500 | ||
| 46071_TS_DEWT_092020.nc | 27-Oct-2024 00:46 | 429498 | ||
| 46071_TS_DEWT_092022.nc | 27-Oct-2024 00:46 | 429355 | ||
| 46071_TS_DEWT_092023.nc | 27-Oct-2024 00:46 | 429492 | ||
| 46071_TS_DEWT_102004.nc | 27-Oct-2024 00:46 | 429427 | ||
| 46071_TS_DEWT_102005.nc | 27-Oct-2024 00:46 | 429497 | ||
| 46071_TS_DEWT_102006.nc | 27-Oct-2024 00:46 | 429112 | ||
| 46071_TS_DEWT_102008.nc | 27-Oct-2024 00:46 | 429390 | ||
| 46071_TS_DEWT_102009.nc | 27-Oct-2024 00:46 | 429816 | ||
| 46071_TS_DEWT_102012.nc | 27-Oct-2024 00:46 | 429579 | ||
| 46071_TS_DEWT_102016.nc | 27-Oct-2024 00:46 | 429767 | ||
| 46071_TS_DEWT_102019.nc | 27-Oct-2024 00:46 | 429840 | ||
| 46071_TS_DEWT_102020.nc | 27-Oct-2024 00:46 | 429840 | ||
| 46071_TS_DEWT_102022.nc | 27-Oct-2024 00:46 | 429701 | ||
| 46071_TS_DEWT_102023.nc | 27-Oct-2024 00:46 | 429840 | ||
| 46071_TS_DEWT_112004.nc | 27-Oct-2024 00:47 | 429839 | ||
| 46071_TS_DEWT_112005.nc | 27-Oct-2024 00:47 | 429730 | ||
| 46071_TS_DEWT_112006.nc | 27-Oct-2024 00:47 | 427538 | ||
| 46071_TS_DEWT_112008.nc | 27-Oct-2024 00:47 | 429450 | ||
| 46071_TS_DEWT_112009.nc | 27-Oct-2024 00:47 | 429840 | ||
| 46071_TS_DEWT_112012.nc | 27-Oct-2024 00:47 | 429839 | ||
| 46071_TS_DEWT_112016.nc | 27-Oct-2024 00:47 | 429821 | ||
| 46071_TS_DEWT_112019.nc | 27-Oct-2024 00:47 | 429564 | ||
| 46071_TS_DEWT_112020.nc | 27-Oct-2024 00:47 | 429377 | ||
| 46071_TS_DEWT_112022.nc | 27-Oct-2024 00:47 | 429843 | ||
| 46071_TS_DEWT_112023.nc | 27-Oct-2024 00:47 | 429200 | ||
| 46071_TS_DEWT_112024.nc | 17-Jan-2025 13:41 | 429497 | ||
| 46071_TS_DEWT_122004.nc | 27-Oct-2024 00:47 | 429095 | ||
| 46071_TS_DEWT_122005.nc | 27-Oct-2024 00:47 | 429101 | ||
| 46071_TS_DEWT_122006.nc | 27-Oct-2024 00:47 | 429498 | ||
| 46071_TS_DEWT_122008.nc | 27-Oct-2024 00:47 | 429326 | ||
| 46071_TS_DEWT_122016.nc | 27-Oct-2024 00:47 | 429499 | ||
| 46071_TS_DEWT_122019.nc | 27-Oct-2024 00:47 | 429494 | ||
| 46071_TS_DEWT_122020.nc | 27-Oct-2024 00:48 | 429495 | ||
| 46071_TS_DEWT_122022.nc | 27-Oct-2024 00:48 | 426196 | ||
| 46071_TS_DEWT_122023.nc | 27-Oct-2024 00:48 | 429497 | ||
| 46071_TS_DEWT_122024.nc | 20-Jan-2025 05:45 | 428091 | ||